RH
17 18 18 18 18 18 18 17 16 16 15 15 15 15 14 15 15 16 15 15 15 14 13 13 14 14 15 16 17 18 19 20 20 21 21 21 21 22 22 22 22 22 21 22 22 23 25 28 29 29 29 30 30 29 27 28 30 31 31 30 27 24 21 23 27 31 34 35 35 34 32 31 31 31 32 32 31 31 32 33 36 37 38 35 37 39 40 42 44 45 44 41 42 43 44 44 44 45 45 46 47 47 46
18 18 18 18 18 19 19 18 18 18 17 17 16 16 15 15 15 15 14 14 14 14 14 14 14 15 16 16 17 18 19 19 20 20 21 21 21 22 22 22 22 21 21 21 22 23 25 28 29 29 29 29 29 28 27 27 27 27 27 25 23 21 20 21 24 27 31 33 34 34 33 33 32 32 32 31 32 32 31 32 33 33 34 34 37 40 40 40 41 41 40 39 40 42 42 43 44 45 44 45 44 44 43
19 19 18 18 18 19 19 19 19 19 19 18 18 18 18 17 17 16 16 16 15 15 15 16 16 16 17 17 18 18 19 19 20 21 21 22 22 22 22 22 22 22 21 22 22 23 25 29 29 29 29 28 29 29 28 27 25 24 22 21 20 20 20 20 21 23 26 30 31 31 31 32 32 32 31 30 32 33 32 32 32 31 31 33 36 39 41 41 41 40 39 39 40 42 42 42 42 43 43 43 43 42 41
20 20 20 19 19 19 19 19 20 20 19 19 19 20 20 20 19 19 18 18 18 18 18 18 18 18 18 19 19 19 19 20 21 21 22 23 23 23 24 23 23 23 23 23 24 25 28 30 31 31 30 30 30 29 26 24 23 22 21 20 19 19 20 20 21 21 23 24 25 27 27 29 30 31 31 32 32 31 32 33 33 33 33 33 36 39 41 42 42 42 40 41 41 42 42 42 42 42 43 43 43 42 41
21 20 20 20 20 20 20 20 20 21 20 20 20 20 21 20 20 20 20 20 20 20 20 20 20 20 20 20 20 21 21 21 22 22 23 23 24 25 25 25 25 25 25 26 27 29 32 33 33 33 32 32 30 28 24 23 23 23 22 20 20 20 20 21 21 22 24 26 28 28 27 29 30 31 31 34 35 34 34 34 36 37 38 35 36 39 42 43 43 43 42 42 42 42 42 43 43 43 43 43 43 42 41
21 21 21 21 21 21 21 22 22 23 22 21 21 21 20 20 20 20 20 21 21 21 22 22 22 22 22 22 22 22 23 23 23 23 24 24 25 25 25 26 26 26 26 27 30 32 35 35 35 34 32 31 28 26 23 24 25 25 24 22 21 21 21 21 21 23 28 31 32 31 31 32 32 32 31 33 35 36 37 38 39 41 42 39 37 37 41 43 44 44 44 44 44 43 42 43 43 43 43 44 43 43 43
21 21 21 21 22 22 22 23 23 24 23 23 23 22 21 21 21 21 21 22 22 22 22 23 23 23 23 23 23 23 23 23 24 24 24 24 25 25 25 25 25 25 25 26 29 32 35 35 33 30 28 27 26 25 26 27 27 27 26 23 22 21 21 21 22 25 31 33 34 34 35 35 35 35 36 36 38 39 40 41 41 42 43 43 41 39 39 42 43 44 44 45 45 44 43 42 42 42 43 44 44 44 44
20 21 21 21 22 22 22 23 24 24 24 24 24 23 23 23 23 23 23 23 23 23 23 23 22 23 23 23 23 23 23 23 24 24 24 24 24 24 24 24 24 24 24 24 25 26 27 28 27 27 26 26 26 26 27 28 28 28 27 23 22 21 21 21 23 26 33 34 35 36 38 38 38 39 40 39 38 38 40 40 41 43 43 43 43 42 42 42 43 44 44 45 45 45 43 43 42 42 42 43 43 43 43
19 20 21 22 22 22 22 23 23 24 25 25 25 24 24 25 25 25 25 24 24 23 23 23 23 23 23 23 23 23 23 23 24 23 23 23 23 23 23 23 23 23 23 23 23 23 24 24 24 25 26 25 25 25 25 26 27 27 26 23 22 22 21 21 24 29 33 34 36 38 39 39 39 39 41 38 38 40 42 41 42 42 42 43 43 42 41 40 40 40 41 43 43 44 44 44 44 43 42 42 42 42 41
19 20 20 21 22 23 23 23 24 24 24 25 25 25 25 25 26 26 26 26 25 24 24 24 24 24 24 24 24 24 24 24 24 24 24 23 23 23 22 22 22 22 22 22 22 22 22 22 23 24 24 24 24 23 23 24 25 25 25 22 22 21 21 22 26 31 34 36 37 38 38 38 37 38 39 38 40 42 43 43 43 43 42 43 42 41 39 38 37 37 38 39 41 42 43 44 44 44 43 42 42 41 41
19 20 20 21 22 23 24 24 24 24 24 24 25 25 25 26 26 27 27 27 26 26 25 25 25 25 25 25 25 25 25 25 25 25 25 24 24 23 23 22 22 22 22 22 21 21 21 22 22 23 23 23 23 23 23 23 24 25 23 22 21 22 22 23 29 34 36 37 38 37 37 36 36 37 36 38 40 42 42 42 43 43 43 43 43 42 40 38 37 36 37 37 39 40 41 41 41 41 40 40 39 39 38
20 20 20 21 21 22 22 23 24 24 24 24 25 25 25 26 26 27 27 27 27 27 27 26 26 26 26 26 26 27 27 27 26 26 26 25 25 24 24 23 23 22 22 22 22 21 21 21 22 22 22 22 22 22 22 23 24 24 22 22 22 22 23 27 33 37 37 37 36 36 35 35 36 36 34 37 39 41 41 41 41 41 41 41 40 40 38 36 36 35 35 36 37 37 37 37 37 36 34 33 32 32 32
20 20 20 20 21 21 22 23 23 24 24 24 25 25 26 26 27 27 28 28 28 28 28 28 28 27 27 28 28 28 28 27 27 27 26 26 25 25 24 24 23 23 22 22 22 21 21 22 22 22 22 22 22 22 22 24 24 23 22 22 22 24 26 32 36 38 38 36 35 34 35 35 36 36 35 36 37 39 39 38 37 37 37 37 37 37 36 35 34 34 34 34 34 34 34 33 32 30 27 25 24 23 24
21 21 20 21 21 21 22 22 23 24 24 25 25 25 26 27 27 28 28 29 29 29 29 29 29 29 29 29 29 29 28 28 27 27 26 26 25 25 24 24 23 23 23 23 22 22 22 22 22 21 21 21 21 21 21 23 23 22 22 22 23 26 30 36 39 39 38 36 35 36 37 37 37 37 36 35 35 36 37 36 36 36 36 36 36 35 34 33 32 31 31 30 29 28 27 27 25 24 23 22 21 20 21
22 21 21 21 21 22 22 22 23 24 24 25 25 26 26 27 27 28 29 29 29 29 29 29 29 30 29 30 29 29 29 28 28 27 27 26 26 25 25 24 24 24 23 23 23 24 24 23 22 22 21 21 21 21 21 23 23 22 22 22 25 30 35 38 39 39 39 36 36 38 39 38 37 36 35 33 32 32 34 35 35 34 34 34 33 32 31 30 29 28 27 26 25 24 23 23 22 22 22 21 20 20 19
22 22 21 21 21 22 23 23 23 23 24 25 25 26 26 26 27 28 28 29 29 29 29 29 30 30 30 30 30 30 29 29 28 28 27 26 26 25 25 25 24 24 23 23 23 24 24 23 23 22 22 21 21 21 20 22 22 21 21 23 28 33 35 38 39 40 39 36 37 38 39 37 35 33 33 31 31 30 31 30 29 29 29 29 28 28 27 26 26 25 24 23 22 22 21 21 21 20 20 19 19 18 16
22 22 22 22 22 22 23 23 23 23 24 25 25 26 26 26 27 27 28 29 29 29 29 29 30 30 30 30 30 30 30 30 29 29 28 27 27 26 26 25 25 24 23 23 23 23 23 23 22 22 22 22 22 21 21 21 21 21 21 26 30 33 34 38 39 39 39 37 37 37 37 35 34 33 32 32 31 30 29 28 27 27 26 26 25 25 24 24 23 22 21 21 20 20 19 18 17 17 17 16 16 15 14
23 23 23 22 22 22 23 23 23 23 23 24 25 25 26 26 27 27 28 28 29 29 29 29 29 29 30 30 30 30 30 30 30 29 29 28 27 27 26 25 25 24 23 23 22 22 22 22 22 22 22 24 24 23 21 20 20 21 22 31 34 34 34 38 39 39 38 37 36 36 35 34 33 33 32 31 30 30 29 27 26 25 24 23 22 22 21 20 19 19 18 18 17 17 16 16 15 15 14 14 14 13 13
24 24 23 23 23 23 23 24 23 23 23 24 24 25 25 26 26 26 27 28 28 29 30 29 29 29 29 30 30 30 30 30 30 30 29 29 28 27 27 26 25 24 23 22 21 21 21 21 21 22 23 25 26 25 22 21 20 22 25 35 38 38 36 37 37 38 38 37 36 36 35 34 33 32 31 30 29 28 27 25 24 23 22 21 19 18 17 17 16 16 15 15 15 15 14 14 14 14 13 13 13 13 13
25 24 24 23 23 23 23 23 23 23 22 23 24 24 25 25 25 26 26 27 28 29 29 30 30 29 30 30 30 30 30 30 30 30 30 29 28 28 27 26 25 24 23 21 21 20 21 21 21 21 23 26 27 26 22 21 20 22 26 36 39 40 39 37 36 36 38 37 37 36 35 33 32 31 29 28 26 25 23 22 20 20 19 18 17 16 15 14 14 14 14 14 14 14 14 14 13 13 13 13 13 13 13
25 25 24 24 23 23 23 23 23 23 22 22 23 24 24 25 25 25 26 26 27 28 29 30 30 30 30 30 30 30 30 30 30 30 29 29 28 28 27 26 25 24 22 21 20 20 20 20 20 21 24 27 27 26 22 20 20 22 26 35 39 39 39 37 35 35 37 36 36 36 34 33 31 29 27 25 23 22 20 19 18 18 17 16 16 15 14 14 14 14 13 13 13 13 13 13 13 13 13 13 13 13 13
26 25 25 24 24 23 23 23 23 23 22 22 23 24 25 25 25 25 25 26 27 28 29 30 30 31 31 31 30 30 30 30 30 30 29 28 28 28 27 26 25 24 22 21 20 20 20 20 20 21 23 26 26 24 20 19 19 21 24 32 37 39 38 36 35 34 34 34 34 33 32 31 29 27 25 23 22 20 19 18 17 16 16 16 15 15 14 14 14 14 14 14 14 14 14 14 14 14 13 13 13 13 13
26 25 25 25 24 24 23 23 23 24 23 23 23 25 29 26 25 25 25 25 26 27 29 30 31 31 31 31 31 31 31 30 30 29 29 28 28 28 27 26 25 24 22 21 21 20 20 20 20 20 23 25 23 21 18 18 18 20 23 28 33 36 37 35 34 34 33 32 32 31 30 28 26 25 23 21 20 19 18 17 16 16 15 15 15 15 14 14 14 14 14 14 15 15 15 15 15 15 14 14 14 14 14
27 27 28 28 27 26 25 24 24 25 25 24 24 26 31 29 27 26 26 26 26 27 28 30 31 32 32 32 32 31 31 30 30 29 29 28 27 27 27 26 25 24 22 22 21 20 20 19 19 20 22 23 21 18 17 17 18 19 22 27 32 35 36 34 33 33 32 31 30 28 27 26 24 23 21 20 19 18 17 17 16 15 15 15 15 15 14 14 14 15 15 15 15 16 16 16 16 16 16 15 15 15 14
28 29 32 32 31 30 27 27 27 28 28 25 24 26 32 32 30 27 26 26 27 27 28 30 31 32 33 33 32 32 31 31 30 30 29 28 27 27 26 26 24 23 22 22 21 20 20 19 19 19 22 22 19 17 17 17 17 18 22 28 31 32 33 32 32 31 31 29 27 26 25 24 22 22 20 19 19 18 17 16 16 15 15 15 15 15 15 15 15 15 15 15 16 16 16 17 17 17 17 17 16 16 15
30 31 33 34 34 33 31 29 30 30 30 27 25 26 30 32 31 29 27 26 26 27 28 29 31 32 33 33 33 32 32 31 31 30 29 28 27 27 26 26 24 23 22 22 21 20 20 19 18 19 21 21 19 17 16 16 17 17 20 25 27 28 28 29 29 29 28 27 26 25 24 23 22 21 20 19 18 17 17 16 16 16 16 15 15 15 15 15 15 15 15 15 16 16 16 17 17 18 18 18 18 17 17
32 31 33 34 35 34 33 31 31 31 32 28 26 25 27 30 30 29 27 26 26 26 27 28 30 31 33 33 33 33 32 31 31 30 29 28 27 27 26 25 24 23 22 22 21 20 20 19 18 19 20 21 19 17 16 16 17 17 18 21 23 23 24 25 26 27 26 26 25 24 23 23 22 20 19 18 18 17 17 16 16 16 16 15 15 15 15 15 15 15 15 15 15 16 16 17 17 18 18 19 19 19 18
33 32 32 33 34 34 33 32 31 31 31 29 27 25 25 28 29 28 26 26 26 26 27 28 29 30 31 32 33 33 32 31 31 30 30 29 28 27 26 26 24 23 22 22 21 20 19 18 18 18 20 20 19 17 16 16 16 17 18 19 20 21 22 23 24 25 25 25 24 23 22 21 21 20 19 19 18 17 17 16 16 16 16 16 16 15 15 15 15 15 15 16 16 16 17 17 18 19 19 20 20 21 21
34 32 31 33 33 33 33 32 31 30 30 28 27 25 24 26 28 28 26 25 25 26 26 27 28 28 30 31 32 32 31 31 30 30 30 29 28 27 26 26 25 24 23 22 21 20 19 18 18 18 19 20 19 17 16 15 16 17 17 18 19 20 20 21 22 23 23 23 22 21 21 20 20 19 19 19 18 18 17 17 17 17 16 16 16 16 16 16 16 16 16 16 17 17 17 18 19 19 20 21 22 22 22
35 33 32 32 32 32 32 32 31 31 30 28 27 25 25 25 27 27 26 25 25 25 26 26 27 28 29 31 32 32 31 30 30 30 30 29 28 28 27 26 25 23 23 22 21 20 19 18 17 17 18 19 19 18 16 15 16 16 17 17 18 19 19 20 20 21 21 22 21 21 20 20 20 19 19 19 19 18 18 18 18 17 17 17 17 17 17 17 17 17 17 17 18 18 18 19 19 20 21 21 22 23 23
35 34 33 33 33 33 33 32 32 31 30 29 27 25 25 25 26 26 26 25 25 25 26 26 27 27 29 30 32 32 31 30 30 30 30 29 28 28 27 26 25 24 23 22 21 20 19 18 17 17 17 18 19 18 16 16 16 16 16 17 17 18 18 19 19 19 19 22 22 21 20 20 20 20 20 20 19 19 19 19 18 18 18 18 18 18 19 18 18 19 19 19 19 19 20 20 20 20 21 21 22 22 23
36 35 34 34 33 34 34 33 33 32 32 30 28 26 25 25 25 26 26 25 25 25 26 26 27 27 28 30 31 31 31 30 30 30 30 29 29 28 27 26 25 24 23 22 21 20 19 18 18 17 17 18 18 18 17 16 16 16 16 16 17 17 17 18 18 18 18 20 21 20 20 20 20 20 20 20 20 20 20 19 19 19 19 19 20 19 20 20 20 20 20 20 20 20 21 21 21 21 22 22 22 23 23
36 36 35 34 34 34 35 35 34 33 34 32 29 27 26 25 25 25 26 26 26 26 26 26 27 27 28 29 30 30 31 31 30 30 30 30 29 28 27 26 25 24 23 22 21 20 20 19 18 18 18 18 18 18 18 17 16 16 16 16 17 17 17 17 18 18 18 19 19 19 20 20 20 21 21 21 20 20 20 20 20 20 20 20 20 20 20 20 20 21 21 21 21 21 21 22 22 22 22 23 23 23 23
36 36 35 34 34 34 34 35 35 35 35 34 32 29 27 26 25 25 26 26 26 26 26 26 27 27 28 29 29 30 31 31 30 30 30 30 30 29 28 27 25 24 23 23 22 21 20 19 19 18 18 18 18 18 18 17 17 17 17 17 17 17 17 17 18 18 18 19 19 19 20 20 21 21 21 21 21 20 20 20 20 20 20 20 21 21 21 21 21 21 21 22 22 22 22 22 22 23 23 23 23 23 24
36 36 35 34 34 34 34 35 36 35 35 35 34 31 29 27 26 25 26 26 26 26 27 27 27 28 28 29 29 30 31 31 31 31 31 30 30 29 28 27 25 24 24 23 22 21 21 20 19 19 19 19 19 19 19 19 18 17 17 17 17 17 18 18 18 18 18 19 19 19 20 20 21 21 21 21 21 21 21 21 21 21 21 21 21 21 21 21 22 22 22 22 22 23 23 23 23 23 23 23 24 24 24
37 36 36 35 34 34 34 35 36 36 36 36 35 33 31 29 27 26 26 26 26 26 27 28 28 28 28 29 29 30 30 31 31 31 31 31 30 29 28 27 26 25 24 23 23 22 21 20 20 19 19 19 19 19 19 19 19 18 18 18 18 18 18 18 18 18 19 19 19 19 20 20 21 21 21 21 21 22 21 22 21 21 21 21 21 21 22 22 22 22 22 23 23 23 23 23 23 23 23 24 24 24 24
38 37 36 35 34 34 34 35 36 36 36 36 35 34 32 30 28 27 25 25 25 26 28 28 28 28 29 29 30 30 30 30 31 31 31 31 30 30 28 27 26 25 24 24 23 22 22 21 21 20 20 20 20 19 19 19 19 19 19 19 19 19 19 19 19 19 19 19 19 19 20 20 21 21 21 22 22 22 22 22 22 22 22 22 22 22 22 22 22 23 23 23 24 24 24 24 24 24 24 24 24 24 24
38 37 36 35 34 34 34 35 36 36 37 37 36 35 33 31 29 27 26 25 26 26 27 28 28 29 29 30 31 31 30 31 31 32 32 31 31 30 28 27 26 25 25 24 24 23 22 22 21 21 20 20 20 20 20 20 20 20 20 20 20 20 20 20 20 20 19 19 19 20 20 20 21 21 21 22 22 23 23 23 23 23 23 23 23 23 23 23 23 23 23 24 24 25 25 25 25 24 24 24 25 25 25
38 37 36 35 34 34 34 35 36 37 37 37 36 36 35 32 30 28 26 26 26 27 27 28 29 29 30 31 31 31 31 31 32 32 32 32 31 30 29 27 27 26 25 25 24 23 23 22 22 21 21 21 21 20 20 20 20 21 21 21 21 21 21 20 20 20 20 20 20 20 20 20 21 21 22 22 23 23 24 24 24 24 24 23 23 23 24 24 24 24 24 24 25 25 25 25 25 25 25 25 25 25 26
37 37 36 35 35 34 35 36 36 37 37 37 37 37 36 34 31 29 27 26 27 27 28 28 29 30 30 31 32 32 31 31 32 33 33 32 31 30 29 28 27 26 26 25 25 24 23 23 22 22 21 21 21 21 20 20 20 21 21 21 22 22 22 21 21 21 21 20 20 20 20 20 20 21 22 22 23 24 24 24 25 25 25 24 24 24 24 24 24 25 25 25 25 25 26 26 26 26 25 25 26 26 26
36 36 36 36 35 35 35 36 36 37 37 37 37 37 37 35 33 30 28 27 27 28 27 28 29 30 31 31 32 32 32 32 33 34 34 33 32 31 29 28 27 26 26 26 25 25 24 23 23 22 22 22 21 21 21 21 21 21 21 22 22 22 22 22 22 21 21 21 20 20 19 20 20 21 22 23 23 24 25 25 25 26 25 25 25 25 25 25 25 25 25 26 26 26 26 26 26 26 26 25 25 26 26
36 37 37 37 37 36 36 36 37 37 37 37 37 37 37 36 34 32 30 28 28 28 28 28 29 30 31 31 32 32 33 33 33 34 35 34 33 31 30 28 28 27 27 27 26 26 25 24 24 23 23 22 22 22 21 21 21 21 21 22 22 23 23 22 22 22 22 21 21 20 19 20 20 21 21 22 24 24 25 26 26 26 27 26 26 26 26 26 26 26 26 26 27 27 27 27 27 27 26 26 26 26 26
37 37 38 38 38 37 37 37 37 37 37 37 37 37 37 36 35 34 31 30 29 29 29 29 29 30 31 32 32 33 33 33 34 35 36 36 34 32 30 29 28 28 27 27 27 26 26 25 25 24 23 23 22 22 22 22 21 21 21 21 22 23 23 23 23 23 23 22 21 21 20 20 20 21 22 23 24 25 26 27 27 27 28 28 27 27 27 27 27 27 27 27 27 28 28 28 28 28 27 27 26 26 26
39 39 39 39 39 38 38 37 37 37 37 37 37 37 37 36 36 35 33 31 30 30 30 29 29 30 32 32 33 33 33 34 35 36 37 37 36 34 32 30 29 29 28 28 28 27 27 26 26 25 24 24 23 23 22 22 22 22 21 21 22 23 24 24 24 24 24 23 23 22 21 21 21 21 22 23 24 25 26 27 28 29 29 29 29 28 28 28 28 28 28 28 28 29 28 29 29 29 29 28 28 27 27
41 41 41 40 40 39 39 38 38 38 37 37 37 37 37 37 37 36 35 33 32 31 31 30 29 30 32 33 33 33 33 34 35 37 38 38 38 36 33 32 30 30 29 29 28 28 28 27 27 26 25 25 24 23 23 23 22 22 22 22 22 23 24 25 25 25 25 24 24 23 23 22 22 22 23 23 25 26 27 28 29 30 30 30 30 30 29 29 29 29 29 29 29 29 29 29 30 30 30 29 29 29 28
43 42 42 42 41 41 40 39 39 38 37 37 37 37 37 37 37 37 36 35 34 32 32 31 30 30 31 32 33 34 34 35 36 37 38 39 39 37 36 34 32 31 30 30 29 29 29 28 27 27 26 26 25 24 24 23 23 23 22 22 23 23 24 25 26 27 26 26 25 24 24 24 24 23 24 25 25 26 28 29 30 31 31 31 31 31 30 30 30 30 30 30 30 30 30 30 30 30 30 31 30 30 30
44 43 43 43 42 42 41 40 40 39 38 37 37 37 37 37 37 38 37 37 35 34 33 32 30 30 31 32 34 35 35 36 36 37 38 39 39 39 38 36 34 32 31 30 30 29 29 29 28 28 27 26 26 25 25 24 24 24 23 23 23 24 25 26 27 28 28 28 27 26 25 25 25 25 25 25 26 27 28 29 30 31 32 32 32 31 31 30 30 30 30 30 30 30 31 31 31 31 31 31 31 31 31
44 44 43 43 43 43 42 41 40 40 39 38 38 37 37 38 38 38 38 38 37 36 34 33 32 31 30 32 34 35 36 37 37 38 39 40 40 40 39 38 36 34 32 31 31 30 30 30 29 29 28 27 26 26 25 25 25 25 24 24 24 25 25 26 28 28 29 29 29 28 27 27 26 26 26 26 26 28 29 30 31 32 32 32 32 31 31 31 31 31 31 31 31 31 31 31 32 32 32 32 32 32 32
44 44 44 44 43 43 42 42 41 40 39 39 38 38 38 39 39 39 39 38 38 37 36 35 33 31 31 32 33 35 36 37 38 38 39 40 40 40 40 39 38 36 34 32 31 31 30 30 30 29 28 28 27 27 26 26 26 26 26 25 25 26 26 27 28 29 30 30 30 30 29 29 28 28 27 27 27 28 29 30 32 32 32 32 32 31 31 31 31 31 31 31 32 32 32 32 32 33 33 33 33 33 33
45 45 45 44 44 43 42 42 41 41 40 39 39 39 39 40 40 40 40 40 39 38 37 36 34 33 32 32 33 34 36 37 38 39 40 41 40 40 38 38 38 37 36 34 33 32 31 31 30 30 29 28 28 27 27 27 27 27 27 26 27 27 27 28 29 29 30 31 31 31 31 31 30 29 28 28 29 29 31 31 32 33 33 33 32 32 31 31 31 31 31 32 32 32 32 33 33 33 33 34 34 34 34
47 46 46 45 45 44 43 42 42 41 41 40 40 40 40 41 41 41 41 40 40 39 39 37 36 34 33 33 33 34 36 37 38 40 41 41 41 39 37 37 36 36 35 34 33 33 32 32 31 30 30 29 28 28 28 28 28 28 28 28 28 28 28 29 29 30 30 31 32 32 33 32 32 31 30 31 31 31 32 33 33 34 34 33 33 32 32 32 31 31 32 32 32 32 33 33 33 34 34 34 35 35 35
47 47 47 46 46 45 45 44 44 43 42 41 41 41 41 41 41 41 41 41 41 40 39 38 37 36 34 34 35 35 36 37 39 40 40 41 41 40 39 36 34 33 32 32 32 33 33 32 32 31 31 30 29 29 29 29 29 29 29 29 29 29 30 30 30 30 30 31 32 33 34 34 33 33 33 33 33 34 35 35 35 35 35 34 34 33 33 33 32 32 32 32 33 33 33 33 34 34 34 35 35 36 36
46 47 48 48 47 47 46 46 45 45 44 43 43 42 42 42 42 41 41 41 40 40 40 39 38 37 36 35 35 36 36 37 38 39 40 41 40 39 38 36 34 32 31 31 31 32 32 33 33 32 32 31 30 30 30 30 30 31 30 31 31 31 31 31 31 30 30 31 32 33 34 34 35 35 35 36 36 37 37 37 38 37 37 37 36 35 34 34 33 33 33 33 33 33 33 33 33 34 34 35 35 36 37
46 47 48 49 49 49 49 48 47 47 46 45 44 44 44 43 43 42 41 40 40 39 39 39 38 38 37 36 36 36 35 36 37 39 40 41 40 39 37 35 35 34 33 32 31 31 31 32 32 33 33 32 32 31 31 31 32 32 32 32 33 33 33 32 32 31 31 31 32 33 34 35 36 37 38 38 39 39 40 40 40 41 40 40 39 37 36 35 35 34 34 34 34 34 34 34 34 34 34 35 35 36 37
45 46 48 49 49 50 50 50 50 49 48 47 46 45 45 45 44 43 42 41 39 38 38 38 38 38 38 37 36 36 35 35 37 38 40 41 41 40 37 36 35 35 33 32 32 32 32 31 31 32 32 32 33 32 33 33 33 34 33 34 34 35 35 34 33 32 32 32 32 33 34 35 37 38 39 40 41 42 43 43 44 44 44 43 42 41 39 38 37 36 35 35 35 34 34 34 34 34 34 35 35 36 37
45 46 47 48 49 50 51 51 51 50 50 49 47 46 46 46 45 45 44 42 40 39 38 37 37 37 38 37 37 37 37 36 36 37 39 40 41 41 40 37 36 35 34 33 33 33 34 33 32 32 32 33 33 34 34 34 35 35 35 36 37 37 37 36 35 34 34 33 33 33 34 35 37 39 41 42 43 45 46 47 48 48 47 46 45 44 42 41 40 38 37 37 36 36 35 34 34 34 35 35 36 36 37
45 46 46 47 48 48 49 50 50 50 50 49 48 47 47 47 47 46 45 44 42 40 38 37 36 36 37 38 38 39 39 38 37 37 38 40 41 42 42 40 38 37 36 35 35 35 35 34 33 33 33 33 33 34 35 35 36 36 37 38 39 40 39 39 38 37 36 35 35 35 35 37 38 40 42 44 46 48 49 50 51 51 50 49 48 47 45 44 43 41 40 39 38 37 36 35 35 35 35 35 36 37 37
42 43 44 45 46 46 47 48 48 49 48 48 47 47 47 47 47 47 46 45 44 42 41 38 37 36 37 38 40 41 41 40 39 39 39 40 41 42 43 43 42 41 39 38 37 36 36 34 34 35 34 34 34 34 34 35 36 37 39 40 41 42 41 41 40 39 38 37 37 37 37 39 40 42 44 46 49 50 52 53 53 52 52 51 50 49 48 47 45 44 43 42 41 40 38 37 36 35 35 35 36 36 37
39 40 42 42 43 44 44 44 45 45 44 44 44 44 44 45 46 46 46 46 45 44 43 41 39 38 37 38 41 44 45 43 42 41 41 41 41 42 43 44 45 45 44 42 40 38 37 36 36 37 37 37 36 35 34 35 36 38 40 42 43 43 43 43 42 41 41 40 40 39 39 41 43 45 47 49 51 53 54 54 54 53 53 52 51 50 50 49 48 46 45 45 44 42 41 39 38 37 36 36 36 36 37
37 37 38 39 39 40 40 40 40 40 40 40 41 41 42 43 44 45 46 46 46 46 45 44 42 40 39 39 41 45 48 49 47 45 44 44 43 43 43 45 46 47 47 47 45 42 39 38 38 39 41 41 40 39 38 37 38 39 41 43 44 45 45 45 45 44 43 43 43 43 43 44 46 48 50 52 54 55 55 55 55 54 54 53 53 52 51 50 49 48 47 47 46 45 43 42 41 40 39 38 37 37 37
36 36 36 37 38 38 39 39 39 39 39 39 39 40 40 42 43 45 46 47 47 47 47 46 45 43 41 41 41 44 48 54 55 53 50 49 48 47 47 47 47 48 49 50 49 48 45 43 41 41 43 45 47 48 46 43 42 42 43 44 45 46 47 47 47 47 46 46 46 46 47 48 50 51 53 55 56 56 56 56 56 55 55 55 54 54 53 53 52 50 49 49 48 47 45 44 43 42 42 41 40 39 38